Theta_e
337 343 347 347 345 346 347 348 349 348 347 344 343 342 341 342 344 344 344 343 343 343 339 341 340 339 339 337 337 337 336 338 340 340 340 340 340 342 341 341 341 338 341
340 344 344 347 347 347 348 347 348 348 346 344 343 343 342 343 343 343 343 343 343 340 343 343 342 340 338 338 337 337 337 339 340 339 340 341 341 342 342 340 340 337 339
341 344 343 345 346 346 346 346 347 347 345 344 343 343 342 342 341 341 341 342 342 339 338 340 339 339 338 338 338 338 338 338 339 339 340 334 336 341 340 338 337 337 336
341 343 343 343 345 346 346 347 347 347 347 345 344 344 342 341 340 340 340 342 339 337 338 336 337 337 336 336 337 337 337 337 337 338 336 335 335 339 338 336 335 334 332
341 343 343 342 345 345 346 347 346 346 346 346 345 343 341 340 341 342 341 341 339 336 335 335 337 336 336 336 336 335 334 335 337 335 332 331 331 335 335 333 331 331 329
341 343 340 343 345 344 345 345 346 345 346 345 345 344 342 341 342 342 342 341 339 336 335 335 336 336 336 336 335 334 334 334 337 332 330 331 327 333 333 331 330 329 327
340 341 340 342 343 343 343 343 343 344 343 343 344 343 342 342 341 342 342 340 337 336 335 336 337 338 337 337 335 337 337 336 334 330 328 327 327 332 332 331 330 327 326
339 339 340 336 339 340 341 341 341 341 342 341 341 342 342 341 340 341 340 338 337 335 337 336 337 340 339 337 336 337 335 334 331 328 327 327 331 331 332 330 328 326 325
339 338 339 338 337 334 336 337 338 339 339 339 339 340 339 338 338 339 338 337 338 337 338 337 337 338 338 335 335 334 332 331 329 328 327 326 331 331 330 328 327 325 324
337 337 337 337 337 336 334 331 333 334 335 336 334 334 332 332 334 334 332 336 338 339 338 337 338 337 336 335 334 331 330 330 329 327 327 327 330 331 329 327 325 324 323
332 335 336 336 335 334 333 330 328 329 330 330 330 329 327 331 333 330 328 333 337 337 338 337 336 335 333 331 330 329 328 331 329 328 327 329 330 330 328 326 324 323 321
323 331 335 335 335 334 333 332 329 331 329 329 329 330 331 332 331 328 323 328 331 332 335 336 334 329 326 325 324 327 330 329 329 327 326 330 331 330 328 325 324 322 320
304 311 333 335 335 333 332 331 328 330 328 328 327 329 330 331 328 327 323 326 330 326 329 329 327 325 323 324 325 326 324 326 327 326 326 328 330 329 328 325 323 322 320
301 305 308 332 334 334 333 331 329 329 327 326 328 328 329 328 328 326 326 328 330 329 325 323 324 322 324 324 323 322 323 323 323 323 323 324 328 328 327 326 323 321 318
300 302 305 317 331 334 333 332 330 329 327 326 328 329 329 327 326 326 327 328 329 328 324 323 322 322 322 320 318 319 320 319 320 321 322 319 325 327 327 325 323 321 319
302 302 304 306 309 327 333 333 330 329 328 327 327 329 328 327 326 328 326 328 329 327 323 322 321 321 316 313 311 314 315 314 312 312 315 320 323 325 325 324 323 322 320
303 304 304 305 306 307 323 331 333 330 328 329 326 327 329 327 326 328 325 327 328 327 324 322 321 316 311 309 307 307 308 307 307 306 307 312 318 320 322 323 322 320 319
301 302 304 307 306 305 306 313 329 332 330 329 328 327 329 327 326 326 325 326 327 325 322 320 318 310 307 304 302 302 303 303 302 302 302 303 305 309 317 319 318 317 317
301 301 301 303 304 306 306 307 319 329 332 330 329 328 328 327 325 325 325 327 326 323 321 319 315 308 303 301 299 298 299 300 300 300 299 298 299 298 301 310 313 314 313
300 300 300 302 302 304 306 310 313 321 330 332 330 328 328 326 325 324 325 325 325 321 318 317 312 306 302 299 295 291 291 292 295 295 295 295 295 295 295 296 299 304 309
299 299 299 300 301 302 302 303 305 308 318 326 329 329 328 327 325 324 324 323 322 319 317 315 310 302 298 293 290 287 287 288 289 291 290 290 290 291 292 292 293 295 301
298 299 299 300 300 300 301 302 304 305 307 307 322 328 328 327 326 325 325 321 320 317 315 312 305 299 296 295 296 289 285 286 286 288 288 288 287 288 289 289 290 293 293
297 297 298 299 299 299 300 301 301 303 304 305 312 325 326 327 326 326 324 321 319 317 311 309 304 301 294 296 297 292 286 288 284 287 286 287 286 286 287 287 288 290 290
295 295 296 296 298 298 298 297 297 298 298 302 305 312 324 326 325 325 323 320 318 316 311 307 305 302 299 296 297 296 294 289 286 281 286 286 286 285 285 286 286 288 289
294 293 293 293 294 295 296 296 296 296 298 302 304 306 311 324 325 324 323 320 318 316 313 308 304 303 301 300 297 292 292 293 291 286 281 282 284 285 286 285 286 286 287
291 290 291 290 291 292 293 294 294 294 296 297 301 303 310 316 323 323 323 320 319 316 312 308 305 303 301 302 300 297 293 291 289 287 284 282 280 284 286 286 285 285 286
Wind_Speed
11 15 20 19 20 18 16 16 15 15 15 15 15 14 13 13 12 16 14 15 15 17 16 16 15 15 15 14 14 16 16 15 14 15 16 16 16 14 15 21 20 16 24
13 15 18 18 18 16 15 15 14 14 14 16 15 15 16 15 14 16 16 16 15 17 17 16 16 16 15 15 15 15 15 14 13 13 14 14 15 20 24 23 22 20 24
15 14 15 17 18 16 14 13 14 15 16 16 17 18 17 16 15 15 16 15 14 16 15 14 15 15 14 15 14 14 13 12 10 8 5 7 12 24 25 24 23 23 22
15 14 12 13 17 16 15 13 13 15 14 15 16 17 18 17 16 16 15 14 16 15 14 14 14 14 13 13 13 12 10 9 9 10 12 12 13 24 23 23 23 22 22
13 13 11 12 16 16 15 15 13 13 13 14 15 18 17 16 15 15 15 14 14 15 15 15 16 15 14 13 12 11 9 9 13 14 12 11 11 19 23 23 22 22 20
10 11 14 13 15 16 14 14 14 14 14 14 15 16 17 16 13 15 15 14 14 15 16 16 15 15 14 13 11 9 7 11 12 11 11 15 12 22 23 24 22 22 21
8 10 13 13 15 16 14 13 14 13 13 14 14 16 15 14 13 13 15 16 14 14 16 16 14 13 15 13 11 9 6 8 11 11 12 12 13 22 23 23 23 22 21
9 9 10 11 12 14 15 14 14 14 13 12 13 15 16 16 13 14 15 15 14 14 14 14 10 14 15 13 10 8 6 13 12 13 13 11 17 21 23 24 23 22 21
8 9 7 9 10 11 12 12 12 13 14 13 13 13 14 14 14 14 14 16 14 13 14 12 9 15 15 13 10 9 10 14 10 10 12 10 18 21 22 23 23 22 21
4 5 8 8 8 9 9 9 11 11 11 13 13 11 10 12 13 14 11 13 15 15 14 13 10 11 13 12 9 10 10 12 11 11 9 10 20 21 22 21 22 22 20
1 1 5 8 11 11 10 9 9 9 10 10 11 12 10 6 10 12 9 11 14 14 15 15 14 12 11 10 8 9 9 6 8 8 7 18 22 21 21 21 21 22 19
4 5 5 7 7 10 9 12 11 7 7 8 8 9 8 8 7 10 9 12 11 13 16 15 15 13 7 4 3 5 3 5 6 8 8 18 22 23 21 20 22 21 19
5 6 6 7 8 8 9 7 7 6 7 7 8 9 7 7 7 6 5 5 7 9 6 7 7 5 5 4 4 4 6 6 6 6 9 16 21 23 23 21 21 20 19
7 7 7 7 8 10 9 8 9 10 9 8 9 11 8 6 9 8 6 7 9 6 9 7 4 5 5 7 5 6 8 7 5 5 6 13 18 23 22 21 21 17 17
7 8 8 7 7 9 11 10 11 12 12 12 11 12 10 10 9 9 7 8 8 8 9 9 6 5 6 8 9 9 10 9 8 5 4 8 15 20 21 21 20 19 17
8 8 8 9 8 9 12 14 13 12 12 13 12 13 15 11 10 10 8 9 9 10 9 8 9 7 7 8 9 8 9 9 7 6 4 4 10 15 18 19 19 19 17
5 7 8 9 10 8 11 13 12 14 13 11 13 17 18 16 14 12 10 10 9 11 13 10 10 10 8 8 10 7 7 8 7 7 6 4 6 11 14 18 19 19 17
6 7 7 8 9 10 10 11 10 10 11 17 17 17 20 19 18 14 11 9 10 10 11 12 11 10 9 8 7 6 6 6 7 7 7 5 5 4 10 16 16 17 17
6 7 8 8 8 10 10 9 11 15 12 15 14 15 21 22 20 14 12 11 13 11 11 13 11 12 10 8 8 6 6 5 6 6 8 8 9 7 5 14 13 15 15
6 7 8 8 9 8 8 8 6 10 12 12 13 16 21 18 22 18 13 13 13 11 10 12 15 11 11 11 10 8 6 5 5 5 7 7 8 7 7 7 6 7 13
7 8 8 10 10 7 5 6 6 8 10 12 12 18 19 19 22 18 14 15 13 13 14 15 15 17 10 11 9 7 7 7 6 5 5 5 7 6 6 6 5 4 5
10 13 14 13 12 8 6 6 5 6 7 9 10 13 16 18 18 17 15 16 18 12 15 16 17 12 6 11 7 5 4 2 3 4 4 5 5 5 5 6 6 8 7
14 14 17 18 13 11 10 7 7 7 8 11 11 11 18 22 22 23 19 17 18 16 14 17 17 17 12 10 14 7 6 5 6 3 4 4 6 4 3 3 6 7 6
14 11 13 17 15 10 9 10 11 11 13 10 10 11 12 26 25 23 21 21 20 14 17 16 16 14 14 16 9 3 2 8 6 5 1 2 5 5 3 2 3 5 6
17 16 17 17 17 18 16 12 11 13 11 9 9 14 13 18 26 25 24 24 24 16 17 20 19 15 13 14 12 6 3 4 6 6 6 6 3 3 3 4 3 4 6
18 17 16 17 17 17 17 15 15 16 15 12 11 10 9 8 12 22 25 21 21 19 20 19 20 20 16 15 11 11 11 8 7 6 5 7 8 5 2 2 3 4 4
Wind_Direction
140 143 154 159 159 162 163 158 153 155 155 156 154 152 150 144 134 146 149 141 136 125 115 117 115 112 101 99 108 107 109 107 106 103 104 101 99 80 98 87 87 88 84
125 146 157 161 159 161 159 156 159 157 160 162 164 156 155 150 130 130 130 134 127 120 115 113 115 112 115 111 108 105 106 103 105 109 107 99 92 96 93 89 84 80 75
128 142 160 162 158 160 161 160 165 160 165 171 168 160 155 153 146 132 128 128 130 133 128 117 109 109 106 114 112 109 113 112 102 99 113 84 100 97 87 81 77 74 73
131 139 163 162 158 160 161 161 168 165 170 169 159 161 156 154 155 151 143 138 134 133 136 131 129 125 125 122 119 117 116 108 77 86 89 97 91 90 88 87 86 84 83
118 145 153 161 164 161 164 159 166 164 167 168 165 159 157 158 154 149 150 143 135 146 150 141 138 138 136 133 128 125 120 99 107 99 96 95 96 95 94 90 86 84 84
130 149 144 165 168 160 170 165 169 175 179 167 174 169 165 163 162 153 153 148 145 153 153 146 147 144 143 138 136 131 135 114 116 107 100 99 98 102 100 97 94 91 86
139 125 157 164 170 165 172 177 183 183 186 187 172 167 169 165 166 163 157 149 147 174 147 156 157 160 147 144 140 139 146 120 121 109 107 100 109 108 104 100 94 92 88
127 130 158 165 174 172 173 184 188 188 190 192 184 189 174 170 176 166 160 154 155 168 157 159 165 144 145 142 140 137 109 129 121 118 112 113 112 112 106 102 99 94 91
125 134 152 177 182 173 174 188 190 193 189 189 192 185 173 175 161 166 168 151 162 160 160 150 154 139 138 141 142 124 100 122 118 120 120 117 119 115 109 107 104 100 95
115 136 153 186 184 191 177 181 193 199 197 185 182 181 180 175 161 168 174 159 168 170 160 144 133 134 134 132 136 125 124 130 130 126 127 126 124 119 113 111 107 104 98
343 223 169 197 190 192 189 186 197 201 201 197 185 186 181 183 175 171 174 170 179 171 150 141 132 120 115 121 146 142 143 137 133 132 129 138 129 122 117 115 110 105 101
293 232 208 184 212 203 204 189 192 198 201 194 189 187 185 177 178 173 173 166 184 158 147 144 135 124 130 135 157 138 108 113 130 127 138 140 134 128 125 122 115 109 106
309 315 222 212 199 210 209 203 185 197 194 200 191 186 178 173 179 191 170 157 154 154 138 124 131 127 189 156 156 118 86 92 104 127 140 142 138 135 132 126 123 120 117
309 296 300 230 225 212 210 204 194 193 188 197 197 188 172 177 178 204 166 154 156 163 139 137 149 184 174 141 132 113 108 96 106 115 132 140 140 139 138 135 127 127 121
285 293 284 298 226 218 231 216 201 200 188 192 192 191 181 183 184 185 166 160 168 156 152 149 163 143 100 89 84 92 104 104 100 101 108 130 150 146 144 139 138 135 128
330 322 322 318 311 277 235 236 224 196 198 189 189 194 188 187 187 173 171 168 175 159 160 158 148 120 111 105 91 99 109 96 85 91 92 108 145 151 147 144 140 132 128
313 307 304 299 303 301 285 248 247 219 189 195 195 195 191 188 190 176 175 170 172 166 163 150 137 118 114 103 98 89 89 92 94 88 77 81 104 122 142 140 135 129 127
319 324 309 301 295 292 292 300 261 241 219 206 195 192 189 189 190 180 178 169 163 169 160 153 144 131 124 117 114 98 96 95 98 89 83 72 69 72 112 124 130 131 126
323 318 312 309 297 292 282 280 289 254 236 228 192 202 188 184 186 182 183 165 163 170 167 154 148 139 133 124 116 101 89 94 100 101 91 79 74 69 63 90 99 121 127
323 313 315 310 308 303 306 299 291 292 256 242 223 190 188 190 188 179 179 164 165 163 170 155 144 138 138 135 115 87 68 62 75 83 93 88 82 79 79 72 71 85 115
316 313 305 307 301 305 299 298 296 287 295 247 236 201 178 199 188 191 177 164 167 167 171 160 143 136 134 133 111 83 59 48 55 71 81 83 85 78 80 78 83 75 109
327 315 314 300 290 285 288 279 270 277 287 287 300 217 195 182 177 183 180 173 171 170 167 162 151 139 127 170 139 117 137 47 45 70 84 94 83 74 63 73 77 87 89
308 311 302 290 283 276 274 288 286 279 277 278 256 255 198 187 182 177 173 171 177 170 171 166 163 155 153 197 169 139 150 172 131 51 44 77 84 70 67 75 89 98 95
311 305 305 312 302 293 291 287 280 274 279 276 280 276 284 190 183 174 172 169 174 176 173 174 170 166 159 173 179 119 95 135 153 143 91 101 117 130 118 136 120 118 102
310 304 298 291 289 289 286 273 275 275 273 277 273 277 240 234 180 183 179 179 174 175 180 176 171 176 175 169 177 145 113 91 115 138 155 155 99 151 160 150 147 127 122
307 303 295 293 285 284 284 277 271 271 274 272 271 276 276 276 210 188 182 180 182 176 174 179 177 174 178 173 189 175 168 160 168 150 130 144 142 154 162 164 154 119 111